SONATE-2
1 59112U 24043Q   26129.84065277  .00026028  00000-0  37444-3 0  9993
2 59112  97.5496 277.9815 0006090 344.4476  15.6590 15.56029401121920
GRBBeta
1 60237U 24128C   26129.85502329  .00002607  00000-0  18717-3 0  9991
2 60237  61.9914 350.7223 0045646 126.6578 233.8725 15.06324716100491
Curium One
1 60242U 24128H   26129.88408152  .00005912  00000-0  34812-3 0  9995
2 60242  61.9800 341.3729 0045359 122.9743 237.5725 15.11895539100664
ROBUSTA-3A
1 60243U 24128J   26129.82783051  .00005503  00000-0  33206-3 0  9996
2 60243  61.9877 343.8335 0046478 120.4344 240.1356 15.11075626100625
CatSat
1 60246U 24125J   26129.56414067  .00037265  00000-0  55753-3 0  9996
2 60246  97.2133 341.6839 0021817 327.4463  32.5445 15.54623365101383
HYPERVIEW-1G (RS66S)
1 61772U 24199AP  26129.84859453  .00067541  00000-0  61889-3 0  9992
2 61772  97.2952   7.8873 0007924  72.1255 288.0869 15.67527123128658
AO-123
1 61781U 24199AY  26129.84334078  .00005741  00000-0  17017-3 0  9991
2 61781  97.3053 358.8659 0015911  87.4897 272.8168 15.35112719128040
JINJUSat 1B
1 63210U 25052A   26129.69618972  .00011235  00000-0  36238-3 0  9991
2 63210  97.4040  26.4284 0002523 181.8229 178.3004 15.32318685 64204
NUSHSAT 1
1 63211U 25052B   26129.66735734  .00014797  00000-0  44489-3 0  9998
2 63211  97.4019  26.8421 0002229 178.9575 181.1673 15.34493107 64234
TEVEL2-4
1 63213U 25052D   26129.69298767  .00012689  00000-0  39678-3 0  9995
2 63213  97.3941  26.0540 0001174 182.4457 177.6780 15.33281084 64215
TEVEL2-5
1 63214U 25052E   26129.64414968  .00013060  00000-0  41029-3 0  9991
2 63214  97.3940  25.9634 0001177 181.7304 178.3935 15.33125548 64204
TEVEL2-6
1 63215U 25052F   26129.65554514  .00013258  00000-0  41695-3 0  9993
2 63215  97.3943  25.9596 0001228 191.1458 168.9757 15.33088188 64202
TEVEL2-1
1 63217U 25052H   26129.67184705  .00012607  00000-0  40271-3 0  9994
2 63217  97.3914  25.6442 0000707 222.1920 137.9267 15.32601342 64191
TEVEL2-3
1 63218U 25052J   26129.66776878  .00012767  00000-0  40718-3 0  9995
2 63218  97.3916  25.6576 0000673 222.0682 138.0508 15.32648307 64190
TEVEL2-2
1 63219U 25052K   26129.67233917  .00012778  00000-0  40806-3 0  9999
2 63219  97.3917  25.6466 0000686 225.3644 134.7542 15.32607550 64194
TEVEL2-9
1 63237U 25052AD  26129.66682437  .00011707  00000-0  39638-3 0  9995
2 63237  97.3981  25.0961 0004081 282.5598  77.5186 15.30735998 64133
TEVEL2-7
1 63238U 25052AE  26129.70074178  .00010919  00000-0  37295-3 0  9999
2 63238  97.3979  25.0611 0004165 282.2952  77.7822 15.30471471 64139
TEVEL2-8
1 63239U 25052AF  26129.64318294  .00011424  00000-0  39028-3 0  9991
2 63239  97.3981  24.9821 0004126 283.5672  76.5109 15.30451861 64129
HYDRA-W
1 63490U 25052BL  26113.93882235  .05662091  24406-5  29537-2 0  9997
2 63490  97.3690  18.2798 0008685 203.5899 156.4993 16.20186780 62336
HADES-ICM (SO-125)
1 63492U 25052BN  26129.70564068  .00570308  12819-3  18595-2 0  9991
2 63492  97.3748  33.5239 0008182 165.6972 194.4534 15.90607553 64713
SPIRONE
1 66657U 25274H   26129.72992718  .00001354  00000-0  13419-3 0  9999
2 66657  97.7466  59.5775 0013130 137.0426 223.1821 14.93385709 24486
K-HERO
1 66660U 25274L   26129.74538236  .00001690  00000-0  16439-3 0  9994
2 66660  97.7482  59.7255 0014947 141.4971 218.7319 14.93814012 24491
SNUGLITE-III DURI
1 66661U 25274M   26129.80138008  .00001139  00000-0  11232-3 0  9999
2 66661  97.7478  59.7998 0015522 142.5848 217.6456 14.93867835 24509
SilverSat
1 66909U 98067XV  26113.44966717  .07226154  12288-4  11979-2 0  9998
2 66909  51.6027 190.0749 0007952 333.4666  26.5949 16.32457272 22308
SAKHACUBE-CHOLBON
1 67290U 25313AU  26129.69700507  .00007556  00000-0  31265-3 0  9995
2 67290  97.3934 205.2327 0010790 127.8634 232.3581 15.24180893 20119
RS95S (QMR-KWT-2)
1 67291U 25313AV  26129.78212387  .00010182  00000-0  40664-3 0  9992
2 67291  97.3934 205.4216 0010550 127.1520 233.0683 15.25284099 20137
Ten-Koh2
1 68261U 25241B   26129.44879677  .00004961  00000-0  21942-3 0  9990
2 68261  51.6522 143.9368 0006141  22.4215 337.7031 15.23397211  9005
JACK-002
1 68417U 26067B   26129.82573747  .00005198  00000-0  25222-3 0  9999
2 68417  97.4541  88.9121 0003899  72.4772 287.6888 15.18915386  6128
DISCO 2
1 68431U 26067R   26129.83752639  .00005605  00000-0  27483-3 0  9999
2 68431  97.4579  88.9164 0004158 111.2304 248.9374 15.18515726  6128
HADES-SA (SpinnyONE)
1 68446U 26067AG  26129.33929627  .00013653  00000-0  67795-3 0  9995
2 68446  97.4389  88.2651 0006418 188.4791 171.6336 15.17781023  6038
PARUS-6U1
1 68456U 26067AS  26129.80636981  .00003900  00000-0  20006-3 0  9994
2 68456  97.4529  88.7797 0005464 177.2961 182.8303 15.17117251  6119
SAL-E
1 68458U 26067AU  26129.80591911  .00004995  00000-0  25452-3 0  9994
2 68458  97.4455  88.7430 0005383 186.2627 173.8540 15.17215378  6114
FSI-SAT 2
1 68792U 26088A   26129.36725567  .00004165  00000-0  28545-3 0  9990
2 68792  97.5019 279.6220 0013598 237.3681 122.6235 15.06513894  2442
OrigamiSat 2
1 68795U 26088D   26129.41776424  .00002940  00000-0  19481-3 0  9995
2 68795  97.5033 279.7101 0015144 208.2977 151.7430 15.07980600  2459
ARICA 2
1 68796U 26088E   26129.68202231  .00003369  00000-0  22188-3 0  9999
2 68796  97.5020 279.9661 0015205 205.4700 154.5781 15.08105250  2495
WASEDA-SAT-ZERO-II
1 68797U 26088F   26129.41603844  .00005097  00000-0  33277-3 0  9997
2 68797  97.5019 279.7075 0015171 206.2108 153.8354 15.08187910  2451
MANGARO-II-Piscus
1 68798U 26088G   26129.67770263  .00002867  00000-0  18723-3 0  9997
2 68798  97.5028 279.9741 0018481 209.0197 151.0006 15.08492153  2496
IO-86
1 40931U          25360.30710720  .00000000  00000-0  12800-3 0    00
2 40931   6.0006 332.5373 0012733 338.8432   8.1437 14.79075515    01
LILIUM-4
1 71922C 26067AC  26089.50133053 -.00014632  00000+0 -74472-3 0    04
2 71922  97.4497  49.1617 0004341   5.9603 355.7042 15.16896692    16
